Weather reports worldwide

Advertisment
London/Heathrow Intl, United Kingdom (3772): temperature & dewpoint: 03.08.2020 21:00:00 - 09.08.2020 21:00:00 (BST)London/Heathrow Intl, United Kingdom (3772): wind speed & gusts: 03.08.2020 21:00:00 - 09.08.2020 21:00:00 (BST)London/Heathrow Intl, United Kingdom (3772): wind direction: 03.08.2020 21:00:00 - 09.08.2020 21:00:00 (BST)London/Heathrow Intl, United Kingdom (3772): reduced air pressure: 03.08.2020 21:00:00 - 09.08.2020 21:00:00 (BST)London/Heathrow Intl, United Kingdom (3772): visibility: 03.08.2020 21:00:00 - 09.08.2020 21:00:00 (BST)London/Heathrow Intl, United Kingdom (3772): sunshine duration: 03.08.2020 21:00:00 - 09.08.2020 21:00:00 (BST)London/Heathrow Intl, United Kingdom (3772): precipitation: 03.08.2020 21:00:00 - 09.08.2020 21:00:00 (BST)
Date & Time tt [°C] td [°C] ff [km/h] ff [kn] fx [km/h] fx [kn] dd ppp [hPa] vv [km] sd [min] rr [mm]
09.08.2020 21:00:00 28,0 15,0 11 6 - - ENE - 10 - -
09.08.2020 20:00:00 28,8 15,7 13 7 - - E 1015,1 30 42 0,0
09.08.2020 19:00:00 30,9 14,9 18 10 - - ESE 1015,0 10 54 0,0
09.08.2020 18:00:00 31,6 14,4 21 11 - - E 1015,2 10 54 0,0
09.08.2020 17:00:00 32,7 15,1 18 10 - - E 1015,6 10 60 0,0
09.08.2020 16:00:00 33,0 14,0 21 11 - - E 1015,9 10 54 0,0
09.08.2020 15:00:00 32,9 16,0 13 7 - - E 1016,3 20 54 0,0
09.08.2020 14:00:00 30,1 16,0 13 7 - - ENE 1016,8 10 60 0,0
09.08.2020 13:00:00 27,8 16,0 11 6 - - NE 1017,5 10 60 0,0
09.08.2020 12:00:00 26,9 16,5 13 7 - - ENE 1018,0 18 60 0,0
09.08.2020 11:00:00 23,7 15,4 11 6 - - NNE 1018,4 10 60 0,0
09.08.2020 10:00:00 21,5 15,4 11 6 - - NE 1018,9 10 30 0,0
09.08.2020 09:00:00 20,1 15,2 13 7 - - NE 1019,3 10 18 0,0
09.08.2020 08:00:00 18,5 15,0 13 7 - - NE 1019,5 10 0 0,0
09.08.2020 07:00:00 17,9 15,0 9 5 - - NE 1019,7 10 0 0,0
09.08.2020 06:00:00 17,4 14,8 9 5 - - NE 1019,5 10 0 0,0
09.08.2020 05:00:00 17,4 15,0 11 6 - - NE 1019,6 10 0 0,0
09.08.2020 04:00:00 17,6 15,0 13 7 - - NNE 1019,9 10 0 0,0
09.08.2020 03:00:00 17,7 15,0 11 6 - - NNE 1020,1 10 0 0,0
09.08.2020 02:00:00 17,8 14,8 9 5 - - N 1020,0 15 0 0,0
09.08.2020 01:00:00 18,2 14,8 13 7 - - NE 1020,0 10 - 0,0
09.08.2020 00:00:00 19,4 15,0 15 8 - - NNE 1019,9 10 0 0,0
08.08.2020 23:00:00 20,7 15,2 11 6 - - N 1019,7 10 0 0,0
08.08.2020 22:00:00 22,6 15,4 11 6 - - NNE 1019,4 10 0 0,0
08.08.2020 21:00:00 24,9 15,8 11 6 - - NNE 1019,1 10 0 0,0
08.08.2020 20:00:00 27,1 16,1 11 6 - - NNE 1018,5 10 42 0,0
08.08.2020 19:00:00 28,4 16,5 16 9 - - NE 1018,2 10 0 0,0
08.08.2020 18:00:00 29,7 16,4 15 8 - - N 1018,0 10 0 0,0
08.08.2020 17:00:00 32,6 14,6 9 5 - - ENE 1018,1 10 18 0,0
08.08.2020 16:00:00 32,8 14,9 13 7 - - NE 1018,4 27 60 0,0
08.08.2020 15:00:00 31,9 15,4 15 8 - - ENE 1018,9 10 54 0,0
08.08.2020 14:00:00 30,5 15,3 13 7 - - NE 1019,3 21 42 0,0
08.08.2020 13:00:00 30,0 16,0 15 8 - - NE 1019,5 10 24 0,0
08.08.2020 12:00:00 27,2 16,2 13 7 - - NNE 1019,6 26 0 0,0
08.08.2020 11:00:00 27,0 16,8 11 6 - - ENE 1019,5 10 30 0,0
08.08.2020 10:00:00 25,6 17,0 13 7 - - NNE 1019,6 10 42 0,0
08.08.2020 09:00:00 24,1 17,2 13 7 - - NNE 1019,5 27 12 0,0
08.08.2020 08:00:00 22,5 16,2 8 4 - - NNE 1019,1 10 0 0,0
08.08.2020 07:00:00 22,4 15,7 9 5 - - NNE 1018,8 10 0 0,0
08.08.2020 06:00:00 21,9 16,1 5 3 - - - 1018,9 10 0 0,0
08.08.2020 05:00:00 21,1 16,0 2 1 - - - 1018,2 10 0 0,0
08.08.2020 04:00:00 21,1 15,5 4 2 - - - 1018,3 10 0 0,0
08.08.2020 03:00:00 21,3 15,0 4 2 - - - 1018,1 10 0 0,0
08.08.2020 02:00:00 22,6 14,0 5 3 - - NW 1018,2 10 0 0,0
08.08.2020 01:00:00 23,7 13,4 2 1 - - E 1018,4 10 - 0,0
08.08.2020 00:00:00 24,3 12,4 2 1 - - - 1018,5 10 0 0,0
07.08.2020 23:00:00 25,9 12,0 2 1 - - N 1018,0 14 0 0,0
07.08.2020 22:00:00 27,2 11,2 4 2 - - - 1017,7 10 0 0,0
07.08.2020 21:00:00 28,8 10,3 8 4 - - WNW 1017,3 10 0 0,0
07.08.2020 20:00:00 30,4 9,0 8 4 - - SSW 1016,7 40 12 0,0
07.08.2020 19:00:00 31,2 8,4 8 4 - - S 1016,5 10 0 0,0
07.08.2020 18:00:00 32,5 7,9 18 10 - - S 1016,4 10 0 0,0
07.08.2020 17:00:00 33,6 7,5 21 11 - - SSW 1016,6 10 12 0,0
07.08.2020 16:00:00 35,6 8,5 16 9 - - SSW 1016,6 10 48 0,0
07.08.2020 15:00:00 36,3 8,8 13 7 - - S 1016,8 10 60 0,0
07.08.2020 14:00:00 35,4 10,3 13 7 - - S 1017,0 10 60 0,0
07.08.2020 13:00:00 33,5 9,4 11 6 - - ESE 1017,6 10 60 0,0
07.08.2020 12:00:00 31,4 10,1 5 3 - - - 1017,9 10 60 0,0
07.08.2020 11:00:00 29,4 11,3 5 3 - - - 1018,3 10 60 0,0
07.08.2020 10:00:00 26,7 14,5 5 3 - - - 1018,5 10 60 0,0
07.08.2020 09:00:00 24,3 15,5 5 3 - - - 1018,7 10 60 0,0
07.08.2020 08:00:00 21,5 16,0 4 2 - - - 1018,4 10 60 0,0
07.08.2020 07:00:00 17,5 14,6 2 1 - - N 1018,7 10 18 0,0
07.08.2020 06:00:00 16,0 14,1 2 1 - - - 1018,5 10 0 0,0
07.08.2020 05:00:00 16,1 13,1 2 1 - - NW 1018,4 40 0 0,0
07.08.2020 04:00:00 17,4 13,5 4 2 - - NW 1018,4 35 0 0,0
07.08.2020 03:00:00 17,6 13,3 0 0 - - N 1018,4 10 0 0,0
07.08.2020 02:00:00 18,4 13,1 2 1 - - S 1018,6 10 0 0,0
07.08.2020 01:00:00 19,0 13,1 5 3 - - S 1018,5 10 - 0,0
07.08.2020 00:00:00 21,0 13,4 8 4 - - SSW 1018,3 40 0 0,0
06.08.2020 23:00:00 22,9 13,8 8 4 - - SSW 1018,2 50 0 0,0
06.08.2020 22:00:00 24,3 13,4 9 5 - - SSW 1017,8 10 0 0,0
06.08.2020 21:00:00 25,4 13,1 9 5 - - SSW 1017,4 10 0 0,0
06.08.2020 20:00:00 26,5 12,8 13 7 - - SSW 1017,1 10 42 0,0
06.08.2020 19:00:00 28,0 13,3 15 8 - - SSW 1016,9 10 60 0,0
06.08.2020 18:00:00 28,9 14,5 13 7 - - SW 1016,9 10 60 0,0
06.08.2020 17:00:00 28,4 14,7 13 7 - - S 1016,9 50 54 0,0
06.08.2020 16:00:00 28,1 15,5 13 7 - - SSW 1017,1 10 36 0,0
06.08.2020 15:00:00 26,7 15,3 13 7 - - SSW 1017,4 10 48 0,0
06.08.2020 14:00:00 26,0 16,8 15 8 - - SSW 1017,6 10 6 0,0
06.08.2020 13:00:00 24,4 16,3 15 8 - - S 1017,9 35 0 0,0
06.08.2020 12:00:00 23,3 16,2 18 10 - - S 1017,8 10 0 0,0
06.08.2020 11:00:00 22,3 16,5 18 10 - - SSW 1017,7 10 0 0,0
06.08.2020 10:00:00 21,2 16,9 15 8 - - SW 1017,5 10 0 0,0
06.08.2020 09:00:00 20,6 17,2 15 8 - - SSW 1017,2 10 0 0,0
06.08.2020 08:00:00 20,1 17,1 16 9 - - SW 1016,7 10 0 0,0
06.08.2020 07:00:00 19,0 17,2 9 5 - - SSW 1016,3 10 0 0,0
06.08.2020 06:00:00 18,3 17,3 11 6 - - SSW 1016,0 9 0 0,0
06.08.2020 05:00:00 18,7 16,7 13 7 - - SSW 1015,5 10 0 0,0
06.08.2020 04:00:00 18,7 16,4 11 6 - - SSW 1015,3 10 0 0,0
06.08.2020 03:00:00 18,6 16,2 11 6 - - SSW 1015,2 35 0 0,0
06.08.2020 02:00:00 18,7 16,0 15 8 - - SW 1014,9 10 0 0,0
06.08.2020 01:00:00 18,7 15,7 15 8 - - SSW 1014,8 10 - 0,0
06.08.2020 00:00:00 19,1 15,5 18 10 - - SW 1014,6 10 0 0,0
05.08.2020 23:00:00 19,6 14,5 18 10 - - SW 1014,3 50 0 0,0
05.08.2020 22:00:00 19,8 13,9 24 13 - - SW 1014,1 10 0 0,0
05.08.2020 21:00:00 20,4 13,6 26 14 - - SW 1013,6 10 6 0,0
05.08.2020 20:00:00 21,9 12,9 26 14 - - SW 1012,8 10 0 0,0
05.08.2020 19:00:00 22,6 12,5 24 13 - - SW 1012,7 10 6 0,0
05.08.2020 18:00:00 23,4 11,4 28 15 - - SW 1012,6 10 18 0,0
05.08.2020 17:00:00 25,0 10,9 29 16 - - SW 1012,4 10 48 0,0
05.08.2020 16:00:00 26,0 8,1 31 17 - - SW 1012,2 10 36 0,0
05.08.2020 15:00:00 24,8 9,2 28 15 46 25 SSW 1012,3 10 54 0,0
05.08.2020 14:00:00 25,5 8,1 28 15 - - SSW 1012,3 30 42 0,0
05.08.2020 13:00:00 24,1 6,5 26 14 - - SSW 1012,4 10 36 0,0
05.08.2020 12:00:00 24,2 8,4 28 15 - - S 1012,4 50 60 0,0
05.08.2020 11:00:00 23,5 9,7 24 13 - - SSW 1012,7 10 36 0,0
05.08.2020 10:00:00 20,6 12,7 18 10 - - SSW 1013,0 10 0 0,0
05.08.2020 09:00:00 18,4 13,1 18 10 - - SSW 1013,3 30 0 0,0
05.08.2020 08:00:00 17,6 13,3 16 9 - - SW 1013,1 10 0 0,0
05.08.2020 07:00:00 16,9 13,4 13 7 - - SSW 1012,7 10 0 0,0
05.08.2020 06:00:00 16,2 13,4 11 6 - - S 1012,6 10 0 0,0
05.08.2020 05:00:00 15,6 12,8 13 7 - - S 1012,7 35 0 0,0
05.08.2020 04:00:00 16,0 12,9 15 8 - - SSW 1012,8 10 0 0,0
05.08.2020 03:00:00 15,7 12,7 16 9 - - SSW 1013,2 10 0 0,0
05.08.2020 02:00:00 16,2 12,5 15 8 - - SW 1013,3 10 0 0,0
05.08.2020 01:00:00 16,3 12,2 16 9 - - SW 1013,6 10 - 0,0
05.08.2020 00:00:00 16,7 12,0 18 10 - - SSW 1013,7 50 0 0,0
04.08.2020 23:00:00 16,6 11,7 18 10 - - SSW 1014,1 10 0 0,0
04.08.2020 22:00:00 17,1 11,6 22 12 - - SSW 1014,1 10 0 0,0
04.08.2020 21:00:00 18,2 11,8 21 11 - - SSW 1014,2 10 12 0,0
04.08.2020 20:00:00 19,8 10,9 24 13 - - SW 1013,8 10 54 0,0
04.08.2020 19:00:00 21,1 10,3 28 15 - - SSW 1014,0 50 54 0,0
04.08.2020 18:00:00 22,3 9,1 26 14 - - SW 1014,2 10 60 0,0
04.08.2020 17:00:00 23,0 8,6 21 11 - - SSW 1014,4 10 24 0,0
04.08.2020 16:00:00 22,5 6,1 22 12 - - SW 1014,8 10 36 0,0
04.08.2020 15:00:00 24,0 6,4 18 10 - - SW 1015,3 10 24 0,0
04.08.2020 14:00:00 21,3 5,2 21 11 - - WSW 1016,0 50 0 0,0
04.08.2020 13:00:00 21,9 5,5 18 10 - - SW 1016,3 10 0 0,0
04.08.2020 12:00:00 21,9 5,4 18 10 - - WSW 1016,7 10 18 0,0
04.08.2020 11:00:00 21,6 7,6 16 9 - - W 1016,9 10 60 0,0
04.08.2020 10:00:00 19,3 9,1 15 8 - - SW 1017,1 10 60 0,0
04.08.2020 09:00:00 17,3 11,4 11 6 - - S 1017,5 29 36 0,0
04.08.2020 08:00:00 15,2 9,6 2 1 - - SW 1017,3 35 60 0,0
04.08.2020 07:00:00 12,3 8,8 4 2 - - - 1017,2 10 18 0,0
04.08.2020 06:00:00 11,1 8,8 2 1 - - - 1017,1 10 0 0,0
04.08.2020 05:00:00 11,4 8,5 4 2 - - - 1017,2 10 0 0,0
04.08.2020 04:00:00 11,8 8,3 4 2 - - WNW 1017,3 45 0 0,0
04.08.2020 03:00:00 12,7 8,2 4 2 - - NW 1017,5 50 0 0,0
04.08.2020 02:00:00 14,1 7,8 2 1 - - NW 1017,6 50 0 0,0
04.08.2020 01:00:00 15,3 7,8 4 2 - - N 1017,9 10 - 0,0
04.08.2020 00:00:00 16,2 7,3 5 3 - - N 1017,7 50 0 0,0
03.08.2020 23:00:00 17,0 7,0 5 3 - - N 1017,5 10 0 0,0
03.08.2020 22:00:00 18,0 7,0 5 3 - - - 1017,2 10 0 0,0
03.08.2020 21:00:00 18,6 7,0 11 6 - - NW 1016,6 10 6 0,0

tt = temperature
td = dewpoint
ff = wind speed
fx = gusts
dd = wind direction
ppp = reduced air pressure
vv = visibility
sd = sunshine duration
rr = precipitation

Next stations